TimeCDT,TemperatureF,Dew PointF,Humidity,Sea Level PressureIn,VisibilityMPH,Wind Direction,Wind SpeedMPH,Gust SpeedMPH,PrecipitationIn,Events,Conditions,WindDirDegrees,DateUTC
12:53 AM,53.1,48.0,83,30.10,10.0,South,3.5,-,N/A,,Clear,180,2013-03-29 05:53:00
1:53 AM,48.0,46.0,93,30.10,10.0,Calm,Calm,-,N/A,,Partly Cloudy,0,2013-03-29 06:53:00
2:53 AM,46.0,45.0,96,30.11,10.0,Calm,Calm,-,N/A,,Scattered Clouds,0,2013-03-29 07:53:00
3:53 AM,48.0,46.9,96,30.09,10.0,Calm,Calm,-,N/A,,Overcast,0,2013-03-29 08:53:00
4:53 AM,48.9,46.0,90,30.09,10.0,Calm,Calm,-,N/A,,Mostly Cloudy,0,2013-03-29 09:53:00
5:53 AM,46.9,46.0,97,30.10,9.0,Calm,Calm,-,N/A,,Scattered Clouds,0,2013-03-29 10:53:00
7:53 AM,44.1,44.1,100,30.13,6.0,Calm,Calm,-,N/A,,Clear,0,2013-03-29 12:53:00
8:32 AM,50.0,48.2,94,30.16,9.0,Calm,Calm,-,N/A,,Mostly Cloudy,0,2013-03-29 13:32:00
8:53 AM,54.0,50.0,86,30.15,9.0,Calm,Calm,-,N/A,,Overcast,0,2013-03-29 13:53:00
9:53 AM,57.9,51.1,78,30.16,10.0,ENE,4.6,-,N/A,,Overcast,70,2013-03-29 14:53:00
10:53 AM,62.1,52.0,70,30.15,10.0,East,5.8,-,N/A,,Overcast,100,2013-03-29 15:53:00
11:53 AM,64.9,53.1,65,30.14,10.0,ESE,4.6,-,N/A,,Overcast,120,2013-03-29 16:53:00
12:23 PM,66.2,53.6,64,30.15,10.0,East,8.1,-,N/A,,Overcast,100,2013-03-29 17:23:00
12:44 PM,66.2,53.6,64,30.15,10.0,SE,8.1,16.1,N/A,,Overcast,130,2013-03-29 17:44:00
12:53 PM,66.9,55.0,66,30.13,10.0,SE,6.9,-,N/A,,Overcast,140,2013-03-29 17:53:00
1:51 PM,69.8,55.4,60,30.13,10.0,ESE,10.4,-,N/A,,Overcast,120,2013-03-29 18:51:00
1:53 PM,69.1,55.0,61,30.11,10.0,SE,11.5,-,N/A,,Overcast,130,2013-03-29 18:53:00
2:53 PM,69.1,54.0,58,30.09,10.0,East,10.4,-,N/A,,Overcast,90,2013-03-29 19:53:00
3:53 PM,69.1,54.0,58,30.08,10.0,East,8.1,-,N/A,,Overcast,100,2013-03-29 20:53:00
4:53 PM,72.0,55.0,55,30.06,10.0,East,10.4,16.1,N/A,,Mostly Cloudy,80,2013-03-29 21:53:00
5:53 PM,69.1,55.0,61,30.07,10.0,SE,10.4,-,N/A,,Overcast,140,2013-03-29 22:53:00
6:53 PM,66.9,55.0,66,30.07,10.0,SE,9.2,-,N/A,,Mostly Cloudy,130,2013-03-29 23:53:00
7:53 PM,64.9,55.9,73,30.07,9.0,SSE,11.5,-,N/A,,Mostly Cloudy,150,2013-03-30 00:53:00
8:24 PM,64.4,57.2,77,30.08,10.0,SSE,5.8,-,N/A,,Overcast,150,2013-03-30 01:24:00
8:53 PM,63.0,55.9,78,30.08,10.0,SSE,10.4,-,N/A,,Overcast,150,2013-03-30 01:53:00
9:53 PM,59.0,55.0,87,30.08,9.0,SSE,5.8,-,N/A,,Partly Cloudy,150,2013-03-30 02:53:00
10:53 PM,55.9,54.0,93,30.08,7.0,SSE,3.5,-,N/A,,Mostly Cloudy,150,2013-03-30 03:53:00
11:53 PM,57.9,55.0,90,30.06,9.0,SSE,6.9,-,N/A,,Overcast,150,2013-03-30 04:53:00